Galesburg, IL

7:26 PM CST on December 13, 2019 (GMT -0600)
Galesburg Municipal

Weather History for KGBG - May, 2019

Change the Weather History Date:

Friday, May 10, 2019

  Actual Average Record
Temperature  
Mean Temperature 50 °F -  
Max Temperature 61 °F 72 °F 88 °F (1956)
Min Temperature 38 °F 47 °F 28 °F (1966)
Degree Days  
Heating Degree Days 16    
Moisture  
Dew Point 40 °F    
Average Humidity 69    
Maximum Humidity 94    
Minimum Humidity 43    
Precipitation  
Precipitation 0.00 in - - ()
Sea Level Pressure  
Sea Level Pressure 30.14 in    
Wind  
Wind Speed 6 mph (NW)    
Max Wind Speed 13 mph    
Max Gust Speed 16 mph    
Visibility 10 miles    
Events      
Averages and records for this station are not official NWS values.
T = Trace of Precipitation, MM = Missing Value Source: NWS Daily Summary

Daily Weather History Graph

Daily Weather History Graph

Search for Another Location

Airport or City:

Astronomy

May. 10, 2019 Rise Set
Actual Time 5:49 AM CDT 8:07 PM CDT
Civil Twilight 5:18 AM CDT 8:38 PM CDT
Nautical Twilight 4:40 AM CDT 9:16 PM CDT
Astronomical Twilight 3:59 AM CDT 9:58 PM CDT
Moon 10:48 AM CDT (5/10) 1:01 AM CDT (5/10)
Length of Visible Light 15h 19m
Length of Day
14h 18m
Waxing Crescent, 35% of the Moon is Illuminated
May 10
Waxing Crescent
May 11
First Quarter
May 18
Full
May 26
Last Quarter
Jun 3
New

Hourly Weather History & Observations

Time (CDT) Temp. Windchill Dew Point Humidity Pressure Visibility Wind Dir Wind Speed Gust Speed Precip Events Conditions
12:15 AM 45.7 °F 41.0 °F 40.1 °F 81% 30.04 in 10.0 mi WNW 9.2 mph - N/A   Overcast
12:35 AM 45.5 °F 40.3 °F 41.0 °F 84% 30.05 in 10.0 mi WNW 10.4 mph - N/A   Overcast
12:55 AM 45.0 °F 38.9 °F 40.3 °F 84% 30.06 in 10.0 mi WNW 12.7 mph 16.1 mph N/A   Overcast
1:15 AM 44.6 °F 40.2 °F 40.1 °F 84% 30.05 in 10.0 mi WNW 8.1 mph - N/A   Overcast
1:35 AM 44.8 °F 40.4 °F 40.5 °F 85% 30.05 in 10.0 mi WNW 8.1 mph - N/A   Overcast
1:55 AM 45.0 °F 40.6 °F 40.3 °F 84% 30.05 in 10.0 mi WNW 8.1 mph - N/A   Overcast
2:15 AM 45.0 °F 40.6 °F 40.3 °F 84% 30.05 in 10.0 mi WNW 8.1 mph - N/A   Overcast
2:35 AM 45.0 °F 41.2 °F 40.1 °F 83% 30.06 in 10.0 mi WNW 6.9 mph - N/A   Overcast
2:55 AM 44.8 °F 41.6 °F 39.9 °F 83% 30.06 in 10.0 mi WNW 5.8 mph - N/A   Overcast
3:15 AM 43.2 °F 39.7 °F 39.2 °F 86% 30.07 in 10.0 mi WNW 5.8 mph - N/A   Scattered Clouds
3:35 AM 42.1 °F 39.2 °F 38.8 °F 88% 30.07 in 10.0 mi WNW 4.6 mph - N/A   Clear
3:55 AM 41.4 °F 38.4 °F 38.7 °F 90% 30.07 in 10.0 mi WNW 4.6 mph - N/A   Clear
4:15 AM 41.2 °F 36.6 °F 38.8 °F 91% 30.07 in 10.0 mi WNW 6.9 mph - N/A   Clear
4:35 AM 41.5 °F 37.8 °F 38.5 °F 89% 30.06 in 10.0 mi WNW 5.8 mph - N/A   Clear
4:55 AM 41.0 °F 37.1 °F 38.3 °F 90% 30.07 in 10.0 mi WNW 5.8 mph - N/A   Clear
5:15 AM 40.5 °F 35.8 °F 37.8 °F 90% 30.07 in 10.0 mi WNW 6.9 mph - N/A   Clear
5:35 AM 40.1 °F 36.9 °F 37.0 °F 89% 30.09 in 10.0 mi WNW 4.6 mph - N/A   Clear
5:55 AM 39.0 °F - 35.8 °F 88% 30.14 in 10.0 mi Calm Calm - N/A   Clear
6:15 AM 38.8 °F - 36.7 °F 92% 30.15 in 10.0 mi Calm Calm - N/A   Clear
6:35 AM 39.6 °F 37.4 °F 37.9 °F 94% 30.16 in 10.0 mi West 3.5 mph - N/A   Clear
6:55 AM 41.9 °F 39.0 °F 38.3 °F 87% 30.15 in 10.0 mi WNW 4.6 mph - N/A   Clear
7:15 AM 43.5 °F 40.9 °F 39.2 °F 85% 30.16 in 10.0 mi WNW 4.6 mph - N/A   Clear
7:35 AM 44.2 °F 41.0 °F 39.2 °F 82% 30.16 in 10.0 mi WNW 5.8 mph - N/A   Clear
7:55 AM 45.3 °F 41.6 °F 38.8 °F 78% 30.16 in 10.0 mi WNW 6.9 mph - N/A   Clear
8:15 AM 46.8 °F - 39.4 °F 75% 30.17 in 10.0 mi WNW 9.2 mph - N/A   Clear
8:35 AM 48.2 °F - 39.6 °F 72% 30.17 in 10.0 mi WNW 6.9 mph - N/A   Clear
8:55 AM 49.1 °F - 38.8 °F 68% 30.18 in 10.0 mi WNW 9.2 mph - N/A   Clear
9:15 AM 50.0 °F - 38.8 °F 66% 30.17 in 10.0 mi WNW 5.8 mph - N/A   Clear
9:35 AM 51.1 °F - 39.6 °F 65% 30.17 in 10.0 mi North 8.1 mph - N/A   Clear
9:55 AM 52.0 °F - 39.7 °F 63% 30.18 in 10.0 mi WNW 6.9 mph - N/A   Scattered Clouds
10:15 AM 52.9 °F - 41.5 °F 65% 30.17 in 10.0 mi WNW 9.2 mph - N/A   Scattered Clouds
10:35 AM 53.2 °F - 40.3 °F 61% 30.18 in 10.0 mi NW 8.1 mph - N/A   Scattered Clouds
10:55 AM 54.1 °F - 41.4 °F 62% 30.18 in 10.0 mi WNW 6.9 mph - N/A   Mostly Cloudy
11:15 AM 54.1 °F - 41.0 °F 61% 30.17 in 10.0 mi WNW 10.4 mph - N/A   Overcast
11:35 AM 54.5 °F - 41.5 °F 62% 30.17 in 10.0 mi WNW 8.1 mph - N/A   Mostly Cloudy
11:55 AM 55.0 °F - 40.3 °F 58% 30.17 in 10.0 mi NE 5.8 mph - N/A   Mostly Cloudy
12:15 PM 55.4 °F - 39.7 °F 56% 30.17 in 10.0 mi WNW 6.9 mph - N/A   Overcast
12:35 PM 55.9 °F - 40.3 °F 56% 30.17 in 10.0 mi WNW 4.6 mph - N/A   Overcast
12:55 PM 56.3 °F - 39.4 °F 53% 30.17 in 10.0 mi WNW 5.8 mph - N/A   Overcast
1:15 PM 56.3 °F - 40.3 °F 55% 30.17 in 10.0 mi West 6.9 mph - N/A   Overcast
1:35 PM 57.0 °F - 40.1 °F 53% 30.17 in 10.0 mi West 9.2 mph - N/A   Overcast
1:55 PM 57.4 °F - 40.1 °F 53% 30.17 in 10.0 mi West 8.1 mph - N/A   Overcast
2:15 PM 58.5 °F - 39.9 °F 50% 30.17 in 10.0 mi North 5.8 mph - N/A   Scattered Clouds
2:55 PM 60.1 °F - 40.6 °F 49% 30.16 in 10.0 mi NNE 4.6 mph - N/A   Mostly Cloudy
3:15 PM 58.8 °F - 38.1 °F 46% 30.17 in 10.0 mi NNW 4.6 mph - N/A   Mostly Cloudy
3:35 PM 59.2 °F - 39.4 °F 48% 30.16 in 10.0 mi North 3.5 mph - N/A   Mostly Cloudy
3:55 PM 59.9 °F - 38.7 °F 45% 30.16 in 10.0 mi Calm Calm - N/A   Mostly Cloudy
4:15 PM 58.3 °F - 40.3 °F 51% 30.16 in 10.0 mi NE 4.6 mph - N/A   Overcast
4:35 PM 58.8 °F - 38.8 °F 47% 30.15 in 10.0 mi West 4.6 mph - N/A   Mostly Cloudy
4:55 PM 59.4 °F - 38.3 °F 46% 30.15 in 10.0 mi Calm Calm - N/A   Clear
5:15 PM 60.8 °F - 38.7 °F 44% 30.15 in 10.0 mi West 3.5 mph - N/A   Scattered Clouds
5:35 PM 61.7 °F - 38.7 °F 43% 30.14 in 10.0 mi ENE 3.5 mph - N/A   Mostly Cloudy
5:55 PM 59.4 °F - 39.4 °F 48% 30.15 in 10.0 mi ENE 5.8 mph - N/A   Overcast
6:15 PM 60.8 °F - 38.8 °F 44% 30.14 in 10.0 mi NE 4.6 mph - N/A   Mostly Cloudy
6:35 PM 59.9 °F - 39.2 °F 46% 30.13 in 10.0 mi ENE 4.6 mph - N/A   Scattered Clouds
6:55 PM 57.6 °F - 39.0 °F 50% 30.13 in 10.0 mi NE 3.5 mph - N/A   Scattered Clouds
7:15 PM 58.1 °F - 36.7 °F 45% 30.13 in 10.0 mi Calm Calm - N/A   Mostly Cloudy
7:35 PM 56.8 °F - 41.9 °F 57% 30.15 in 10.0 mi Calm Calm - N/A   Mostly Cloudy
7:55 PM 55.6 °F - 41.0 °F 58% 30.15 in 10.0 mi Calm Calm - N/A   Scattered Clouds
8:15 PM 54.1 °F - 44.6 °F 70% 30.15 in 10.0 mi Calm Calm - N/A   Scattered Clouds
8:35 PM 53.4 °F - 40.8 °F 62% 30.16 in 10.0 mi Calm Calm - N/A   Clear
8:55 PM 50.9 °F - 42.4 °F 73% 30.16 in 10.0 mi Calm Calm - N/A   Clear
9:15 PM 51.3 °F - 42.4 °F 72% 30.17 in 10.0 mi Calm Calm - N/A   Clear
9:35 PM 48.6 °F - 42.3 °F 79% 30.16 in 10.0 mi Calm Calm - N/A   Clear
9:55 PM 48.0 °F - 42.8 °F 82% 30.16 in 10.0 mi Calm Calm - N/A   Clear
10:15 PM 47.7 °F - 42.8 °F 83% 30.16 in 10.0 mi Calm Calm - N/A   Clear
10:35 PM 48.0 °F - 41.2 °F 77% 30.16 in 10.0 mi East 4.6 mph - N/A   Clear
10:55 PM 49.5 °F - 41.0 °F 73% 30.15 in 10.0 mi ESE 3.5 mph - N/A   Clear
11:15 PM 49.5 °F - 40.8 °F 72% 30.15 in 10.0 mi ESE 3.5 mph - N/A   Clear
11:35 PM 47.5 °F - 41.4 °F 79% 30.15 in 10.0 mi Calm Calm - N/A   Clear
11:55 PM 47.3 °F - 42.4 °F 83% 30.15 in 10.0 mi Calm Calm - N/A   Clear